Regional Weather Roundup
Issued by NWS

Home | Current Version | Previous Version | Graphics & Text | Print | Product List | Glossary On
Versions: 1 2 3 4 5 6 7 8 9 10 11 12 13 14 15 16 17 18 19 20 21 22 23 24 25 26 27 28 29 30 31 32 33 34 35 36 37 38 39 40 41 42 43 44 45 46 47 48 49 50
000
ASUS44 KMEG 241610
RWRTN
TENNESSEE HOURLY STATE WEATHER ROUNDUP
NATIONAL WEATHER SERVICE MEMPHIS TN
1100 AM CDT TUE MAY 24 2016

TNZ002-004-019-021-049-052-054-088>092-241700-
WEST TENNESSEE

CITY           SKY/WX    TMP DP  RH WIND       PRES   REMARKS
MEMPHIS INTL   MOSUNNY   84  61  45 SW9       30.07S
NWS MEMPHIS      N/A     84 N/A N/A MISG        N/A
JACKSON        SUNNY     83  58  42 SW9       30.09S
DYERSBURG      CLOUDY    82  57  42 SW14      30.08R
UNION CITY     SUNNY     81  61  50 S6        30.07R
PARIS          SUNNY     77  59  53 S8        30.10S
LEXINGTON      SUNNY     79  61  53 S7        30.10S
$$

TNZ008-025-027-028-033-062-065-066-241700-
NORTH MIDDLE TENNESSEE

CITY           SKY/WX    TMP DP  RH WIND       PRES   REMARKS
NASHVILLE      MOSUNNY   82  51  34 S7        30.13S
CLARKSVILLE    CLOUDY    76  58  53 S7        30.11S
SMYRNA         SUNNY     80  57  45 S5        30.14S
COOKEVILLE     SUNNY     81  52  36 S3        30.15S
CROSSVILLE     SUNNY     76  48  37 N7        30.19S
$$

TNZ061-075-076-078-094-096-097-241700-
SOUTH MIDDLE TENNESSEE

CITY           SKY/WX    TMP DP  RH WIND       PRES   REMARKS
FAYETTEVILLE   SUNNY     79  55  44 VRB7      30.15S
TULLAHOMA      SUNNY     79  54  41 CALM      30.16S
WINCHESTER     SUNNY     79  55  44 VRB6      30.16S
MCMINNVILLE    SUNNY     81  54  39 S5        30.15F
COLUMBIA       SUNNY     82  61  47 S6        30.12R
SHELBYVILLE    SUNNY     82  55  39 VRB5      30.15S
$$

TNZ017-018-042-046-047-241700-
NORTHEAST TENNESSEE

CITY           SKY/WX    TMP DP  RH WIND       PRES   REMARKS
TRI CITIES     MOSUNNY   71  53  52 S6        30.19S
$$

TNZ012-013-036-069-073-074-241700-
CENTRAL EAST TENNESSEE

CITY           SKY/WX    TMP DP  RH WIND       PRES   REMARKS
KNOXVILLE      PTSUNNY   73  52  47 VRB3      30.17S
OAK RIDGE      SUNNY     76  53  44 CALM      30.18S
GATLINBURG     SUNNY     73  52  46 CALM      30.17S
$$

TNZ083-085-099-241700-
SOUTHEAST TENNESSEE

CITY           SKY/WX    TMP DP  RH WIND       PRES   REMARKS
CHATTANOOGA    MOSUNNY   76  53  44 SW6       30.17S
$$

SKY/WX REPORTED AS FAIR MEANS FEW OR NO CLOUDS BELOW
12 THOUSAND FEET.




USA.gov is the U.S. government's official web portal to all federal, state and local government web resources and services.